This is the latest recevied weather packets stored in our database for station/object EA1IDU. If no packets are shown the sender has not sent any weather packets the latest 10 day(s).
| Time | Temp. | Humidity | Pressure | Rain* | Wind** | Luminosity | Snow |
|---|---|---|---|---|---|---|---|
| 1777360831 | 11.67° C | 93% | 1015.7 hPa | 0 mm | - | - | - |
| 1777357261 | 11.11° C | 95% | 1015.4 hPa | 0 mm | - | - | - |
| 1777356071 | 11.11° C | 95% | 1015.6 hPa | 0 mm | - | - | - |
| 1777354258 | 11.11° C | 96% | 1015.4 hPa | 0 mm | - | - | - |
| 1777351312 | 10.56° C | 96% | 1015.5 hPa | 0 mm | - | - | - |
| 1777348247 | 10.56° C | 94% | 1015.8 hPa | 0 mm | - | - | - |
| 1777347663 | 10.56° C | 94% | 1015.6 hPa | 0 mm | - | - | - |
| 1777346432 | 10.56° C | 94% | 1015.8 hPa | 0 mm | - | - | - |
| 1777344637 | 11.11° C | 93% | 1016.1 hPa | 0 mm | - | - | - |
| 1777340443 | 11.67° C | 91% | 1016.3 hPa | 0 mm | - | - | - |
| 1777339254 | 11.67° C | 89% | 1016.5 hPa | 0 mm | - | - | - |
| 1777338649 | 11.67° C | 88% | 1016.6 hPa | 0 mm | - | - | - |
| 1777335663 | 11.67° C | 90% | 1017.2 hPa | 0 mm | - | - | - |
| 1777334453 | 11.67° C | 90% | 1017.3 hPa | 0 mm | - | - | - |
| 1777332638 | 12.22° C | 91% | 1017.9 hPa | 0 mm | - | - | - |
| 1777328466 | 12.78° C | 88% | 1018.9 hPa | 0 mm | - | - | - |
| 1777327901 | 12.78° C | 88% | 1019.1 hPa | 0 mm | - | - | - |
| 1777326045 | 12.78° C | 88% | 1019 hPa | 0 mm | - | - | - |
| 1777321265 | 13.33° C | 82% | 1017.8 hPa | 0 mm | - | - | - |
| 1777318845 | 13.89° C | 79% | 1017.2 hPa | 0 mm | - | - | - |
| 1777311646 | 15° C | 78% | 1017.8 hPa | 0 mm | - | - | - |
| 1777311041 | 15° C | 77% | 1017.6 hPa | 0 mm | - | - | - |
| 1777310436 | 14.44° C | 78% | 1017.8 hPa | 0 mm | - | - | - |
| 1777309227 | 15° C | 78% | 1017.7 hPa | 0 mm | - | - | - |
| 1777307471 | 13.89° C | 84% | 1017.8 hPa | 0 mm | - | - | - |
* Rain latest hour (hover to see other rain measurements)
** Current wind speed in m/s (hover to see current wind gust speed)